Location: Beaver Brook Station
(42.3793°N, 71.2203°W)
Time: 23:08:07
(UTC+00:00)

ISS - Visible Passes

Search period start: 22 January 2021 00:00
Search period end: 01 February 2021 00:00
Orbit: 418 x 421 km, 51.6° (Epoch: 23 January)

Date Brightness Start Highest point End Pass type
(mag) Time Alt. Az. Time Alt. Az. Time Alt. Az.
22 Jan -3.7 22:19:12 10° SW 22:22:34 89° SSE 22:25:59 10° NE visible
22 Jan -1.6 23:56:59 10° WNW 23:59:03 21° NW 23:59:03 21° NW visible
23 Jan -2.2 23:09:15 10° W 23:12:14 28° NNW 23:13:42 20° NNE visible
24 Jan -2.7 22:21:35 10° W 22:24:45 38° NNW 22:27:58 10° NE visible
24 Jan -1.2 23:59:54 10° NW 00:01:17 16° NNW 00:01:17 16° NNW visible
25 Jan -1.8 23:12:08 10° WNW 23:14:40 19° N 23:15:52 16° NNE visible
26 Jan -1.9 22:24:20 10° WNW 22:27:06 22° NNW 22:29:51 10° NE visible
27 Jan -1.1 00:02:27 10° NW 00:03:24 14° NNW 00:03:24 14° NNW visible
27 Jan -1.7 23:14:52 10° NW 23:17:09 17° N 23:17:57 16° NNE visible
28 Jan -1.7 22:27:09 10° NW 22:29:31 17° N 22:31:53 10° NE visible
29 Jan -1.2 00:04:31 10° NW 00:05:29 15° NNW 00:05:29 15° NNW visible
29 Jan -1.9 23:17:07 10° NW 23:19:36 19° N 23:20:04 18° NNE visible
30 Jan -1.8 22:29:37 10° NW 22:31:57 17° N 22:34:18 10° NE visible
31 Jan -1.5 00:06:20 10° NW 00:07:39 20° NNW 00:07:39 20° NNW visible
31 Jan -2.5 23:18:59 10° NW 23:21:55 27° NNE 23:22:20 26° NNE visible
